George Downer Airport

Jump to: basic info | weather | frequencies | runways | comments

Related pages: nearby airports | nearby navaids | notams | map

Basic information (top)

Codes: AIV KAIV
Location: lon 33.106499, lat -88.197800, elev 150 ft / 46 m msl
Status: small_airport

Weather (top)

Current conditions for Golden Triangle Regional Airport 29nm (53km) NW (rec'd 2014/10/20 10:55Z):

KGTR 201055Z 00000KT 1 1/2SM BR BKN002 06/03 A3008

Airport forecast for Golden Triangle Regional Airport 29nm (53km) NW (rec'd 2014/10/20 06:45Z):

TAF KGTR 200525Z 2006/2106 00000KT P6SM SKC 
     FM201100 00000KT 5SM BR SKC 
     FM201400 00000KT P6SM SKC

Frequencies (top)

Verify before use: may be inaccurate or out of date.

UNIC: 122.8 MHz (CTAF/UNICOM)

Runways (top)

06/24: 4,970 x 80 ft (1,515 x 24 m) — paved — lighted — threshold 06 displaced 200 ft (61 m) — threshold 24 displaced 615 ft (187 m)

Latest comments (top)

No comments yet for George Downer Airport

More... (top)

See also NOTAMs and nearby airports and navaids, or visit the George Downer Airport page at the main OurAirports website..